Location: Amsterdam
(30.7274°N, 84.4357°W)
Time: 06:02:11
(UTC+00:00)

Tiros 1 despin weight - Pass Details

Date: 18 February 2026
Orbit: 556 x 593 km, 48.2° (Epoch: 13 March)

Event Time Altitude Azimuth Distance (km) Brightness Sun altitude
Rises 20:09:47 0° 252° (WSW) 2,743 ? 36.4°
Reaches altitude 10° 20:12:13 10° 262° (W) 1,843 ? 36.0°
Maximum altitude 20:16:01 32° 326° (NNW) 968 ? 35.4°
Drops below altitude 10° 20:19:48 10° 31° (NNE) 1,836 ? 34.9°
Sets 20:22:13 0° 41° (NE) 2,731 ? 34.5°
